• In Czech Republic
  • List of Countries
  • For 7 days
  • Water Temperature
  • Satellite Maps
  • Weather Map
  • Weather Widgets
  • user-avatar
    Login

    Hourly Weather Prutz

    Today, 19 August, Saturday

    Time Temperature Precipitation Wind Pressure Humidity
    00:00 +14°C° 2.1 mm 2 mps 636 mmHg 96%
    01:00 +14°C° 2.1 mm 2 mps 636 mmHg 97%
    02:00 +14°C° 4.8 mm 2 mps 636 mmHg 97%
    03:00 +13°C° 4.8 mm 2 mps 636 mmHg 97%
    04:00 +13°C° 4.8 mm 1 mps 635 mmHg 97%
    05:00 +13°C° 2 mm 1 mps 636 mmHg 97%
    06:00 +12°C° 2 mm 1 mps 636 mmHg 97%
    07:00 +12°C° 2 mm 1 mps 636 mmHg 96%
    08:00 +12°C° 1.1 mm 1 mps 636 mmHg 96%
    09:00 +12°C° 1.1 mm 1 mps 636 mmHg 95%
    10:00 +12°C° 1.1 mm 1 mps 636 mmHg 94%
    11:00 +12°C° 0.9 mm 2 mps 636 mmHg 92%
    12:00 +13°C° 0.9 mm 2 mps 636 mmHg 90%
    13:00 +13°C° 0.9 mm 2 mps 636 mmHg 88%
    14:00 +13°C° 0.8 mm 2 mps 636 mmHg 87%
    15:00 +13°C° 0.8 mm 2 mps 636 mmHg 86%
    16:00 +13°C° 0.8 mm 2 mps 636 mmHg 86%
    17:00 +13°C° 0.7 mm 2 mps 636 mmHg 88%
    18:00 +12°C° 0.7 mm 2 mps 636 mmHg 90%
    19:00 +10°C° 0.7 mm 2 mps 636 mmHg 93%
    20:00 +9°C° 0.2 mm 2 mps 636 mmHg 94%
    21:00 +9°C° 0.2 mm 2 mps 637 mmHg 94%
    22:00 +8°C° 0.2 mm 2 mps 637 mmHg 95%
    23:00 +8°C° 0.1 mm 2 mps 637 mmHg 95%

    Tomorrow, 20 August, Sunday

    Time Temperature Precipitation Wind Pressure Humidity
    00:00 +7°C° 0.1 mm 2 mps 637 mmHg 95%
    01:00 +7°C° 0.1 mm 2 mps 637 mmHg 96%
    02:00 +8°C° 0.1 mm 1 mps 637 mmHg 95%
    03:00 +7°C° 0.1 mm 1 mps 636 mmHg 95%
    04:00 +7°C° 0.1 mm 1 mps 636 mmHg 95%
    05:00 +8°C° 0.1 mm 1 mps 637 mmHg 93%
    06:00 +8°C° 0.1 mm 1 mps 637 mmHg 91%
    07:00 +8°C° 0.1 mm 2 mps 638 mmHg 90%
    08:00 +9°C° 0.1 mm 2 mps 638 mmHg 81%
    09:00 +12°C° 0.1 mm 2 mps 638 mmHg 73%
    10:00 +13°C° 0.1 mm 2 mps 639 mmHg 64%
    11:00 +14°C° 0 mm 2 mps 639 mmHg 58%
    12:00 +15°C° 0 mm 2 mps 639 mmHg 51%
    13:00 +16°C° 0 mm 2 mps 640 mmHg 44%
    14:00 +16°C° 0 mm 2 mps 639 mmHg 45%
    15:00 +16°C° 0 mm 2 mps 639 mmHg 46%
    16:00 +16°C° 0 mm 2 mps 639 mmHg 47%
    17:00 +14°C° 0 mm 2 mps 639 mmHg 57%
    18:00 +13°C° 0 mm 2 mps 638 mmHg 68%
    19:00 +10°C° 0 mm 2 mps 638 mmHg 79%
    20:00 +10°C° 0 mm 1 mps 638 mmHg 83%
    21:00 +9°C° 0 mm 1 mps 638 mmHg 87%
    22:00 +8°C° 0 mm 1 mps 638 mmHg 91%
    23:00 +7°C° 0 mm 1 mps 638 mmHg 91%

    Day after tomorrow, 21 August, Monday

    Time Temperature Precipitation Wind Pressure Humidity
    00:00 +7°C° 0 mm 1 mps 638 mmHg 91%
    01:00 +7°C° 0 mm 1 mps 637 mmHg 91%
    02:00 +6°C° 0 mm 1 mps 637 mmHg 89%
    03:00 +6°C° 0 mm 1 mps 637 mmHg 88%
    04:00 +6°C° 0 mm 1 mps 637 mmHg 86%
    05:00 +7°C° 0 mm 1 mps 637 mmHg 80%
    06:00 +8°C° 0 mm 1 mps 638 mmHg 74%
    07:00 +9°C° 0 mm 1 mps 638 mmHg 69%
    08:00 +12°C° 0 mm 1 mps 639 mmHg 60%
    09:00 +14°C° 0 mm 1 mps 640 mmHg 51%
    10:00 +16°C° 0 mm 2 mps 640 mmHg 42%
    11:00 +17°C° 0 mm 2 mps 640 mmHg 40%
    12:00 +18°C° 0 mm 2 mps 640 mmHg 38%
    13:00 +19°C° 0 mm 2 mps 640 mmHg 36%
    14:00 +18°C° 0 mm 2 mps 640 mmHg 38%
    15:00 +18°C° 0 mm 2 mps 640 mmHg 41%
    16:00 +18°C° 0 mm 3 mps 640 mmHg 44%
    17:00 +16°C° 0 mm 2 mps 639 mmHg 55%
    18:00 +14°C° 0 mm 2 mps 638 mmHg 67%
    19:00 +12°C° 0 mm 2 mps 638 mmHg 79%
    20:00 +10°C° 0 mm 1 mps 638 mmHg 83%
    21:00 +9°C° 0 mm 1 mps 638 mmHg 87%
    22:00 +8°C° 0 mm 1 mps 637 mmHg 92%
    23:00 +8°C° 0 mm 1 mps 637 mmHg 91%

    22 August, Tuesday

    Time Temperature Precipitation Wind Pressure Humidity
    00:00 +7°C° 0 mm 1 mps 637 mmHg 90%
    01:00 +7°C° 0 mm 1 mps 637 mmHg 89%
    02:00 +7°C° 0 mm 1 mps 637 mmHg 85%
    03:00 +7°C° 0 mm 1 mps 637 mmHg 82%
    04:00 +7°C° 0 mm 1 mps 637 mmHg 79%
    05:00 +8°C° 0 mm 1 mps 637 mmHg 72%
    06:00 +10°C° 0 mm 1 mps 638 mmHg 65%
    07:00 +11°C° 0 mm 1 mps 638 mmHg 57%
    08:00 +14°C° 0 mm 1 mps 639 mmHg 49%
    09:00 +16°C° 0 mm 1 mps 640 mmHg 40%
    10:00 +20°C° 0 mm 1 mps 640 mmHg 31%
    11:00 +21°C° 0 mm 1 mps 640 mmHg 30%
    12:00 +22°C° 0 mm 1 mps 640 mmHg 29%
    13:00 +21°C° 0 mm 2 mps 640 mmHg 28%
    14:00 +21°C° 0 mm 2 mps 640 mmHg 31%
    15:00 +21°C° 0 mm 2 mps 639 mmHg 34%
    16:00 +21°C° 0 mm 2 mps 639 mmHg 37%
    17:00 +18°C° 0 mm 2 mps 638 mmHg 50%
    18:00 +16°C° 0 mm 1 mps 638 mmHg 63%
    19:00 +13°C° 0 mm 1 mps 637 mmHg 76%
    20:00 +12°C° 0 mm 1 mps 637 mmHg 78%
    21:00 +11°C° 0 mm 1 mps 637 mmHg 80%
    22:00 +10°C° 0 mm 1 mps 636 mmHg 83%
    23:00 +10°C° 0 mm 1 mps 636 mmHg 80%

    23 August, Wednesday

    Time Temperature Precipitation Wind Pressure Humidity
    00:00 +10°C° 0 mm 1 mps 636 mmHg 77%
    01:00 +10°C° 0 mm 1 mps 636 mmHg 75%
    02:00 +9°C° 0 mm 1 mps 636 mmHg 71%
    03:00 +9°C° 0 mm 1 mps 636 mmHg 67%
    04:00 +9°C° 0 mm 1 mps 636 mmHg 63%
    05:00 +11°C° 0 mm 1 mps 636 mmHg 59%
    06:00 +12°C° 0 mm 1 mps 637 mmHg 55%
    07:00 +14°C° 0 mm 1 mps 638 mmHg 51%
    08:00 +16°C° 0 mm 1 mps 638 mmHg 45%
    09:00 +20°C° 0 mm 1 mps 639 mmHg 39%
    10:00 +22°C° 0 mm 1 mps 640 mmHg 33%
    11:00 +23°C° 0 mm 1 mps 640 mmHg 32%
    12:00 +24°C° 0 mm 2 mps 640 mmHg 32%
    13:00 +24°C° 0 mm 2 mps 640 mmHg 32%
    14:00 +24°C° 0 mm 2 mps 640 mmHg 34%
    15:00 +24°C° 0 mm 2 mps 639 mmHg 36%
    16:00 +23°C° 0 mm 2 mps 639 mmHg 38%
    17:00 +20°C° 0 mm 2 mps 639 mmHg 50%
    18:00 +19°C° 0 mm 1 mps 638 mmHg 62%
    19:00 +15°C° 0 mm 1 mps 637 mmHg 73%
    20:00 +14°C° 0 mm 1 mps 637 mmHg 75%
    21:00 +13°C° 0 mm 1 mps 637 mmHg 78%
    22:00 +12°C° 0 mm 1 mps 637 mmHg 80%
    23:00 +12°C° 0 mm 1 mps 637 mmHg 78%

    24 August, Thursday

    Time Temperature Precipitation Wind Pressure Humidity
    00:00 +12°C° 0 mm 1 mps 637 mmHg 77%
    01:00 +12°C° 0 mm 1 mps 637 mmHg 75%
    02:00 +12°C° 0 mm 1 mps 637 mmHg 74%
    03:00 +11°C° 0 mm 1 mps 637 mmHg 72%
    04:00 +11°C° 0 mm 1 mps 637 mmHg 71%
    05:00 +13°C° 0 mm 1 mps 637 mmHg 68%
    06:00 +14°C° 0 mm 1 mps 638 mmHg 65%
    07:00 +15°C° 0 mm 1 mps 638 mmHg 62%
    08:00 +18°C° 0 mm 1 mps 639 mmHg 56%
    09:00 +20°C° 0 mm 1 mps 640 mmHg 50%
    10:00 +23°C° 0 mm 1 mps 640 mmHg 44%
    11:00 +23°C° 0.1 mm 1 mps 640 mmHg 43%
    12:00 +23°C° 0.1 mm 1 mps 640 mmHg 43%
    13:00 +24°C° 0.1 mm 2 mps 640 mmHg 43%
    14:00 +22°C° 1.2 mm 1 mps 640 mmHg 54%
    15:00 +20°C° 1.2 mm 1 mps 639 mmHg 65%
    16:00 +19°C° 1.2 mm 1 mps 638 mmHg 77%
    17:00 +18°C° 0.8 mm 1 mps 638 mmHg 81%
    18:00 +16°C° 0.8 mm 1 mps 638 mmHg 85%
    19:00 +15°C° 0.8 mm 1 mps 638 mmHg 89%
    20:00 +14°C° 0.3 mm 1 mps 638 mmHg 89%
    21:00 +13°C° 0.3 mm 1 mps 638 mmHg 89%
    22:00 +13°C° 0.3 mm 1 mps 638 mmHg 89%
    23:00 +13°C° 0.2 mm 1 mps 637 mmHg 89%
    Show more